Regional Weather Roundup
Issued by NWS Pendleton, OR

Home | Current Version | Previous Version | Text Only | Print | Product List | Glossary On
Versions: 1 2 3 4 5 6 7 8 9 10 11 12 13 14 15 16 17 18 19 20 21 22 23 24 25 26 27 28 29 30 31 32 33 34 35 36 37 38 39 40 41 42 43 44 45 46 47 48 49 50
000
ASUS46 KPDT 041525
RWRPDT
PENDLETON REGIONAL WEATHER ROUNDUP
NATIONAL WEATHER SERVICE PENDLETON OREGON
800 AM PDT SAT JUL 4 2015

NOTE: FAIR INDICATES FEW OR NO CLOUDS BELOW 12,000 FEET WITH NO
SIGNIFICANT WEATHER AND/OR OBSTRUCTIONS TO VISIBILITY.

# INDICATES UNOFFICIAL STATION AND DATA

WAZ520-041610-
EAST SLOPES OF WASHINGTON CASCADES

CITY            SKY/WX      TMP DP  RH  WIND    PRES   REMARKS
#BULLFROG 2SW   N/A         75  48  38  CALM    27.50S
#BUMPING DAM    N/A         56  N/A N/A CALM    N/A
#CLE ELUM HS    N/A         69  47  45  CALM    29.82S
#CLE ELUM LAKE  N/A         67  47  49  CALM    29.71S
#CLIFFDEL 2NW   N/A         62  48  60  N1      N/A
#GLENWOOD       N/A         63  55  75  CALM    29.76F
#MANASTASH CYN  N/A         74  42  32  CALM    29.87S
#NELSON         N/A         71  53  53  CALM    29.74F
#NELSON 3SW     N/A         71  49  46  CALM    29.90S
#NILE           N/A         73  52  48  CALM    29.06S
#RONALD 2NW     N/A         67  48  50  N2      29.80S
#SNOWDEN        N/A         68  41  37  CALM    N/A
#TEANAWAY 4NE   N/A         66  51  58  NW2     N/A
#TROUT LAKE 1NE N/A         69  55  61  CALM    29.73S
$$

WAZ521-041610-
SIMCOE HIGHLANDS

CITY            SKY/WX      TMP DP  RH  WIND    PRES   REMARKS
#BICKLETON HS   N/A         78  35  21  N3      N/A
#CENTERVILLE 1SWN/A         75  54  48  CALM    29.72
#GOLDENDALE     N/A         66  50  56  E1      N/A
#GOLDENDALE 5WNWN/A         73  54  51  CALM    29.73R
#GOODNOE HILLS  N/A         79  55  44  NW8     N/A
#LYLE 6NE       N/A         68  54  61  S2      29.72S
$$

WAZ026-041610-
KITTITAS VALLEY

CITY            SKY/WX      TMP DP  RH  WIND    PRES   REMARKS
ELLENSBURG AP   SUNNY       81  46  29  NW20G24 29.83S
YTC-OPS AREA    N/A         75  40  28  W20G24  29.87R
#ELLENSBURG CWU N/A         79  48  34  NW5     29.67S
#ELLENSBURG 3NE N/A         77  49  37  N3      29.83S
#ELLENSBURG 1E  N/A         72  53  51  CALM    N/A
#KITTITAS 3S    N/A         72  59  64  CALM    29.71S
#THORP 6N       N/A         73  46  38  NW12    29.73R
$$

WAZ027-041610-
YAKIMA VALLEY

CITY            SKY/WX      TMP DP  RH  WIND    PRES   REMARKS
SUNNYSIDE AP    PTCLDY      74  54  50  CALM    29.78S
YAKIMA AIRPORT  SUNNY       83  49  31  NW10    29.81R
#DONALD 2NE     N/A         92  21   8  SW2     28.64S HX 88
#GRANDVIEW      N/A         76  54  46  CALM    29.74S
#MABTON         N/A         77  60  56  NE1     29.77S
#MOXEE 2E       N/A         79  32  18  CALM    29.73F
#NACHES 2SW     N/A         78  49  36  W6      29.83S
#OUTLOOK DOT    N/A         N/A N/A N/A CALM    N/A
#SELAH 8E       N/A         82  46  28  NE5     N/A
#TERRACE HTS    N/A         80  47  31  CALM    29.67S
#TOPPENISH      N/A         76  52  43  W3      29.65R
#WAPATO 4NE     N/A         92  21   8  SW2     28.64S HX 88
#WEST VALLEY    N/A         80  50  35  CALM    29.70R
#W YAKIMA       N/A         80  50  35  N3      29.70F
#WHITE SWAN 5E  N/A         77  55  47  CALM    29.73S
#WILEY CITY 3W  N/A         84  44  25  CALM    29.79R
$$

WAZ028-041610-
LOWER COLUMBIA BASIN...WASHINGTON

CITY            SKY/WX      TMP DP  RH  WIND    PRES   REMARKS
PASCO           PTCLDY      83  54  37  S6      29.76S
RICHLAND AWOS   PTCLDY      82  52  35  SW5     29.76S
#BASIN CITY 5SW N/A         75  61  62  S1      29.76S
#BENTON CITY    N/A         80  54  41  N1      29.63S
#CONNELL 5N     N/A         80  53  39  SW3     29.70S
#CONNELL 5NW    N/A         76  60  58  SW1     29.67S
#ELTOPIA 6NW    N/A         74  61  64  S1      28.76R
#KAHLOTUS       N/A         80  48  33  W14     29.69F
#KENNEWICK      N/A         75  48  38  CALM    27.50S
#KENNEWICK 3S   N/A         80  55  42  S3      29.72R
#PATERSON       N/A         75  57  54  CALM    29.73S
#PROSSER        N/A         79  52  39  SW1     29.71S
#SAGEMOOR 2W    N/A         77  59  54  CALM    29.57S
#TOUCHET 2S     N/A         81  56  42  SW7     29.71F
#WEST PASCO     N/A         82  59  46  CALM    29.75R
$$

WAZ029-041610-
FOOTHILLS OF THE BLUES...WASHINGTON

CITY            SKY/WX      TMP DP  RH  WIND    PRES   REMARKS
WALLA WALLA AP  PTCLDY      85  46  26  SW13    29.82R
#DAYTON SCHOOL  N/A         81  41  24  NE7     29.83S
#LOWDEN 2SE     N/A         82  55  40  CALM    29.75S
#PLEASANT VIEW 1N/A         81  47  30  S13     29.72S
#PRESCOTT       N/A         82  48  31  W2      29.72S
#SUDBURY        N/A         85  N/A N/A CALM    N/A
#WAITSBURG 5S   N/A         80  46  30  S7      29.79F
#WAITSBURG 8N   N/A         82  24  12  S13     29.65S
#WALLA WALLA U  N/A         82  52  35  CALM    29.73S
#WHITMAN MISSIONN/A         79  58  49  CALM    29.75S
$$

WAZ030-041610-
BLUE MOUNTAINS...WASHINGTON

CITY            SKY/WX      TMP DP  RH  WIND    PRES   REMARKS
#DIXIE 5SE      N/A         87  45  23  W1      29.85S
$$

ORZ009-041-WAZ024-041610-
COLUMBIA RIVER GORGE

CITY            SKY/WX      TMP DP  RH  WIND    PRES   REMARKS
HOOD RIVER AP   SUNNY       73  55  53  CALM    29.82F
THE DALLES AP   PTCLDY      76  53  45  CALM    29.80R
#ARLINGTON AIRPON/A         77  55  47  W9      32.28R
#ARLINGTON HS   N/A         80  54  41  CALM    29.65R
#CELILO DOT     N/A         80  58  47  W2      N/A
#MOSIER 1S      N/A         72  43  35  N8      29.79S
#MURDOCK        N/A         76  57  52  W8      29.79S
#RUFUS DOT      N/A         78  59  52  S2      N/A

$$

ORZ510-041610-
NORTH CENTRAL OREGON

CITY            SKY/WX      TMP DP  RH  WIND    PRES   REMARKS
#CHENOWITH 1W   N/A         69  52  55  NW21    N/A
#COW CYN RST AREN/A         74  N/A N/A W3      N/A
#DUFUR 9E       N/A         79  42  27  NW1     29.77R
#GRASS VALLEY 1SN/A         78  50  38  SW9     29.76R
#KENT DOT       N/A         76  50  40  W14     N/A
#MAUPIN SCHOOL  N/A         72  49  44  N5      29.84F
#MORO SCHOOL    N/A         78  53  42  SW1     29.87R
#SHANIKO 5WSW   N/A         72  47  41  S8      N/A
#SHANIKO 4NW    N/A         73  45  37  SW6     29.97S
#TYGH VALLEY 2NEN/A         70  52  53  CALM    29.75F
#WAPANITIA AIRPON/A         80  50  35  NW5     29.74F
#WASCO DOT      N/A         77  58  52  W8      N/A
#WASCO AIRPORT  N/A         75  49  40  W7      N/A
#WASCO 5NE      N/A         76  53  45  CALM    29.74R
$$

ORZ511-041610-
CENTRAL OREGON

CITY            SKY/WX      TMP DP  RH  WIND    PRES   REMARKS
BEND AIRPORT    N/A         N/A N/A N/A MISG    N/A
MADRAS AIRPORT  MOCLDY      70  46  42  S6      29.94S
PRINEVILLE AP   CLOUDY      68  37  32  NE5     29.97S
REDMOND AIRPORT CLOUDY      68  44  42  SE5     29.96S
#BEND 1SW       N/A         66  45  47  W1      N/A
#BEND-AWBREY    N/A         68  46  45  SW5     29.75R
#BEND-KIM LN    N/A         67  48  50  S3      29.97R
#CROOKED RVR RANN/A         70  46  42  SW1     29.74R
#CULVER         N/A         70  52  53  CALM    29.90R
#LAKE BILLY CHINN/A         70   0   6  CALM    29.99R
#POWELL BUTTE 3EN/A         59  45  60  E1      N/A
#POWELL BUTTE   N/A         71  48  44  NE1     29.62R
#PRINEVILLE 3N  N/A         65  51  60  E1      29.75S
#WARM SPRINGS   N/A         73  47  40  CALM    29.87S

$$


ORZ509-041610-
EAST SLOPES OF OREGON CASCADES

CITY            SKY/WX      TMP DP  RH  WIND    PRES   REMARKS
#BLUE BOX PASS  N/A         64   9  11  W3      N/A
#CAMP SHERMAN   N/A         57  47  69  CALM    29.81S
#LA PINE 4NW    N/A         61  47  60  CALM    29.82R
#SISTERS AIRPOR N/A         65  49  56  CALM    30.17S
#SISTERS ODOT   N/A         64  N/A N/A CALM    N/A
#SISTERS 1NW    N/A         60  42  51  N6      N/A
#SISTERS 3N     N/A         64  45  50  CALM    29.99S
#SUNRIVER       N/A         60  47  62  S2      29.66S
#TUMALO 3W      N/A         69  42  37  CALM    29.64R
#WANOGA BUTTE D N/A         68  29  23  W3      N/A

$$

ORZ044-041610-
LOWER COLUMBIA BASIN...OREGON

CITY            SKY/WX      TMP DP  RH  WIND    PRES   REMARKS
HERMISTON       PTCLDY      82  47  29  VRB3    29.79R
#BOARDMAN SCHOOLN/A         78  56  47  SW5     29.78S
#BOARDMAN 8SW   N/A         80  56  44  W8      29.74R
#ECHO 8SW       N/A         85  47  27  W13     29.79S
#IONE SCHOOL    N/A         84  44  25  S7      29.78F
#IRRIGON 4NW    N/A         77  55  47  S1      N/A
#UMATILLA SCHOOLN/A         83  64  53  CALM    29.78F
#UMATILLA       N/A         79  52  39  E1      29.70R
$$

ORZ507-041610-
NORTHERN FOOTHILLS OF THE BLUES

CITY            SKY/WX      TMP DP  RH  WIND    PRES   REMARKS
PENDLETON AIRPT PTCLDY      78  44  30  S7      29.84S
#ADAMS 3WNW     N/A         82  47  29  S1      29.73S
#ATHENA         N/A         81  46  29  W1      29.75S
#CAYUSE         N/A         78  50  38  E2      29.73S
#HELIX SCHOOL   N/A         76  46  34  S7      29.73S
#HELIX 3N       N/A         78  44  30  S10     29.83S
#HOLDMAN 6E     N/A         78  46  32  N5      29.54F
#M-F GROVE ELEM N/A         83  42  24  SW2     29.81S
#M-FREEWATER 5SEN/A         77  53  43  CALM    29.83S
#PENDLETON DNTN N/A         69  46  44  CALM    29.81S
#PDT AQUATIC CTRN/A         74  49  41  E2      29.86S
#PDT SUNRIDGE   N/A         78  50  38  CALM    29.84S
#PENDLETON 7NW  N/A         84  53  34  SW3     27.36S
#PILOT ROCK     N/A         80  47  31  CALM    29.88S
#TUTUILLA       N/A         76  49  39  CALM    29.78R
#UMAPINE 2E     N/A         83  55  38  CALM    29.76S
#WESTON SCHOOL  N/A         79  42  27  W6      29.74S

$$

ORZ508-041610-
SOUTHERN FOOTHILLS OF THE BLUES

CITY            SKY/WX      TMP DP  RH  WIND    PRES   REMARKS
#AJAX           N/A         78  42  28  SW2     29.82S
#CONDON SCHOOL  N/A         76  47  36  SW8     29.88F
#CONDON 5W      N/A         73  43  34  SW9     29.91R
#FOSSIL SCHOOL  N/A         72  46  39  CALM    29.87S
#HEPPNER EOC    N/A         82  44  26  SW7     29.66S
#HEPPNER 4NE    N/A         79  41  26  W6      29.71S
#LEXINGTON 2SE  N/A         86  45  24  W7      29.80F
#RUGGS 5NE      N/A         79  43  28  W7      30.07S
#RUGGS 2SW      N/A         81  43  26  W5      29.73F

$$

ORZ502-503-041610-
BLUE MOUNTAINS

CITY            SKY/WX      TMP DP  RH  WIND    PRES   REMARKS
MEACHAM         PTCLDY      66  49  54  CALM    29.97F
#BATTLE MTN DOT N/A         64  52  65  S5      N/A
#HEPPNER 15SE   N/A         72  41  33  CALM    29.89S
#LONG CREEK HS  N/A         68  46  45  CALM    29.94R
#N POWDER DOT   N/A         70  54  57  NW2     N/A
#PIKES PEAK     N/A         72  43  35  S17G24  27.99S
#TOLLGATE       N/A         65  45  48  SW2     29.96S
#TROY SCHOOL    N/A         69  47  45  CALM    29.61S
#UKIAH          N/A         57  47  69  CALM    29.84F
#WESTON 4E      N/A         74  45  35  S3      29.65S
$$

ORZ505-041610-
JOHN DAY BASIN

CITY            SKY/WX      TMP DP  RH  WIND    PRES   REMARKS
JOHN DAY        PTCLDY      73  39  29  CALM    29.99S
#JOHN DAY KJDY  N/A         70  60  71  CALM    29.95F
#DAYVILLE SCHOOLN/A         68  44  42  CALM    29.92S
#MITCHELL       N/A         71  49  46  CALM    30.10S
#MONUMENT HS    N/A         68  43  40  CALM    29.93S
#MT. VERNON 5SE N/A         75  40  28  CALM    29.96R
#WINLOCK        N/A         76  42  30  CALM    30.04R
$$

ORZ506-041610-
OCHOCO AND JOHN DAY HIGHLANDS

CITY            SKY/WX      TMP DP  RH  WIND    PRES   REMARKS
#BUCK CREEK DOT N/A         74  74  100 NW5     N/A
#HORSE RIDGE DO N/A         62  40  44  W1      N/A
#KEYES SMT DOT  N/A         70  43  38  NW3     N/A
#PAULINA SCHOOL N/A         64  37  37  CALM    29.98S
#PRAIRIE CITY   N/A         73  52  48  CALM    29.83F
#SENECA         N/A         61  N/A N/A CALM    N/A
#SENECA 9NW     N/A         60  43  53  CALM    29.75F
$$

ORZ049-041610-
GRANDE RONDE VALLEY

CITY            SKY/WX      TMP DP  RH  WIND    PRES   REMARKS
LA GRANDE       PTCLDY      70  41  35  E5      29.93R
#COVE           N/A         70  55  59  CALM    29.93S
#ELGIN 3N       N/A         66  48  52  S1      29.91S
#ELGIN 1E       N/A         60  48  64  CALM    N/A
#IMBLER SCHOOL  N/A         65  46  50  CALM    29.89S
#ISLAND CITY 4N N/A         61  55  81  CALM    29.88S
#LADD CYN DOT   N/A         71  48  44  N1      N/A
#UNION 1S       N/A         65  49  56  CALM    29.67S
$$

ORZ050-041610-
WALLOWA COUNTY

CITY            SKY/WX      TMP DP  RH  WIND    PRES   REMARKS
JOSEPH AIRPORT  N/A         75  45  34  NE3     29.99S
#IMNAHA SCHOOL  N/A         73  45  37  S3      29.87S
#IMNAHA 10S     N/A         76  51  42  SW3     30.01S
#JOSEPH 3N      N/A         65  49  56  CALM    30.00R
#JOSEPH 3W      N/A         75  46  36  NE2     29.87R
#LOSTINE        N/A         65  49  56  CALM    29.57S
#MT HOWARD 8000 N/A         64  29  27  CALM    30.27R
#PROMISE 1S     N/A         73  50  44  CALM    29.79F
#WALLOWA SCHOOL N/A         63  48  58  CALM    29.91S



$$



USA.gov is the U.S. government's official web portal to all federal, state and local government web resources and services.